OneWeb SL0366

operational
NORAD ID: 49292 Int'l Des: 2021-090 Owner: ONEWEBN Country: UK Constellation: oneweb
LEOCIRCULARPOLARONEWEB_TYPE

Über OneWeb SL0366

Beschreibung wird geladen...

Live-Position

3D-Globus wird geladen...

Nächste Überflüge

Höhenverlauf

Altitude vs Time

uPlot chart will show altitude changes over time

Zweizeiliger Elementsatz

1 49292U 21090P 25305.46312801 .00000140 00000-0 34408-3 0 9995
2 49292 87.9007 335.0890 0001807 95.0952 265.0384 13.14502854197641
Epoch: 1. Nov. 2025 • Age: 24 hours

Aktueller Status

Höhe 1208.1 km
Geschwindigkeit 7.25 km/s
Subsatellitenpunkt 4.96°N, 129.77°E
Startdatum 14. Okt. 2021
Alter 4 years
Typ internet

Technische Details

Klassifizierung Payload
Masse 148.00 kg
Trockenmasse 140.00 kg
Gesamtmasse 148.00 kg
Länge 1.30 m
Durchmesser 1.00 m
Spannweite 5.00 m
Form Trapezoid+2 pan
Hersteller ONEWUS
Bus-Typ ARROW
Phasenstatus In Orbit
Besitzer/Staat ONEWEBN/UK

Große Konstellationen

Loading constellations...